Location: Boo
(59.3083°N, 18.2784°E)
Time: 02:38:31
(UTC+01:00)

ISS - Pass Details

Date: 03 December 2022
Orbit: 412 x 424 km, 51.6° (Epoch: 03 February)

Event Time Altitude Azimuth Distance (km) Brightness Sun altitude
Rises 16:16:48 0° 245° (WSW) 2,349 2.4 -9.4°
Reaches altitude 10° 16:19:13 10° 230° (SW) 1,487 0.5 -9.6°
Maximum altitude 16:21:52 22° 178° (S) 960 -1.6 -9.9°
Drops below altitude 10° 16:24:27 10° 126° (SE) 1,437 -1.3 -10.2°
Enters shadow 16:25:34 - 117° (ESE) 1,813 -0.9 -10.4°
